Time,TemperatureF,DewpointF,PressureIn,WindDirection,WindDirectionDegrees,WindSpeedMPH,WindSpeedGustMPH,Humidity,HourlyPrecipIn,Conditions,Clouds,dailyrainin,SoftwareType,DateUTC
2013-05-06 00:04:00,42.5,35.7,30.28,SSE,158,0.0,0.0,77,0.00,,,0.00,WUHU216HW,2013-05-06 04:04:00,
2013-05-06 00:06:00,42.5,35.7,30.28,SSE,158,0.0,0.0,77,0.00,,,0.00,WUHU216HW,2013-05-06 04:06:00,
2013-05-06 00:14:00,42.1,35.4,30.28,SSE,158,0.0,0.0,77,0.00,,,0.00,WUHU216HW,2013-05-06 04:14:00,
2013-05-06 00:16:00,42.1,35.4,30.28,SSE,158,0.0,0.0,77,0.00,,,0.00,WUHU216HW,2013-05-06 04:16:00,
2013-05-06 00:24:00,41.9,35.2,30.28,SSE,158,0.0,0.0,77,0.00,,,0.00,WUHU216HW,2013-05-06 04:24:00,
2013-05-06 00:26:00,41.9,35.2,30.28,SSE,158,0.0,0.0,77,0.00,,,0.00,WUHU216HW,2013-05-06 04:26:00,
2013-05-06 00:34:00,41.8,35.0,30.28,SSE,158,0.0,0.0,77,0.00,,,0.00,WUHU216HW,2013-05-06 04:34:00,
2013-05-06 00:44:00,41.4,34.7,30.28,SSE,158,0.0,0.0,77,0.00,,,0.00,WUHU216HW,2013-05-06 04:44:00,
2013-05-06 00:54:00,41.2,34.8,30.28,SSE,158,0.0,0.0,78,0.00,,,0.00,WUHU216HW,2013-05-06 04:54:00,
2013-05-06 01:04:00,41.0,34.9,30.27,SSE,158,0.0,0.0,79,0.00,,,0.00,WUHU216HW,2013-05-06 05:04:00,
2013-05-06 01:14:00,40.7,34.7,30.27,SSE,158,0.0,0.0,79,0.00,,,0.00,WUHU216HW,2013-05-06 05:14:00,
2013-05-06 01:24:00,40.5,34.5,30.27,SSE,158,0.0,0.0,79,0.00,,,0.00,WUHU216HW,2013-05-06 05:24:00,
2013-05-06 01:34:00,40.3,34.3,30.27,SSE,158,0.0,0.0,79,0.00,,,0.00,WUHU216HW,2013-05-06 05:34:00,
2013-05-06 01:44:00,40.0,33.9,30.27,SSE,158,0.0,0.0,79,0.00,,,0.00,WUHU216HW,2013-05-06 05:44:00,
2013-05-06 01:54:00,40.0,33.9,30.27,SSE,158,0.0,0.0,79,0.00,,,0.00,WUHU216HW,2013-05-06 05:54:00,
2013-05-06 02:04:00,39.6,34.0,30.27,SSE,158,0.0,0.0,80,0.00,,,0.00,WUHU216HW,2013-05-06 06:04:00,
2013-05-06 02:14:00,39.4,33.9,30.26,SSE,158,0.0,0.0,80,0.00,,,0.00,WUHU216HW,2013-05-06 06:14:00,
2013-05-06 02:24:00,39.2,33.7,30.26,SSE,158,0.0,0.0,80,0.00,,,0.00,WUHU216HW,2013-05-06 06:24:00,
2013-05-06 02:34:00,39.2,33.7,30.26,SSE,158,0.0,0.0,80,0.00,,,0.00,WUHU216HW,2013-05-06 06:34:00,
2013-05-06 02:45:00,39.6,34.3,30.25,SSE,158,0.0,0.0,81,0.00,,,0.00,WUHU216HW,2013-05-06 06:45:00,
2013-05-06 02:55:00,40.0,34.9,30.25,SSE,158,0.0,0.2,82,0.00,,,0.00,WUHU216HW,2013-05-06 06:55:00,
2013-05-06 03:05:00,40.3,35.6,30.26,SSE,158,0.0,0.0,83,0.00,,,0.00,WUHU216HW,2013-05-06 07:05:00,
2013-05-06 03:15:00,40.9,36.4,30.26,North,0,0.0,0.7,84,0.00,,,0.00,WUHU216HW,2013-05-06 07:15:00,
2013-05-06 03:25:00,41.2,36.7,30.26,North,0,0.0,0.2,84,0.00,,,0.00,WUHU216HW,2013-05-06 07:25:00,
2013-05-06 03:35:00,41.2,36.7,30.26,North,0,0.0,0.0,84,0.00,,,0.00,WUHU216HW,2013-05-06 07:35:00,
2013-05-06 03:45:00,41.6,37.1,30.25,North,0,0.0,0.0,84,0.00,,,0.00,WUHU216HW,2013-05-06 07:45:00,
2013-05-06 03:55:00,41.8,37.5,30.26,North,0,0.0,0.0,85,0.00,,,0.00,WUHU216HW,2013-05-06 07:55:00,
2013-05-06 04:05:00,42.1,37.9,30.26,North,0,0.0,0.0,85,0.00,,,0.00,WUHU216HW,2013-05-06 08:05:00,
2013-05-06 04:15:00,42.7,38.4,30.25,North,0,0.0,0.0,85,0.00,,,0.00,WUHU216HW,2013-05-06 08:15:00,
2013-05-06 04:25:00,43.0,38.8,30.25,North,0,0.0,0.0,85,0.00,,,0.00,WUHU216HW,2013-05-06 08:25:00,
2013-05-06 04:35:00,43.2,39.0,30.26,South,180,0.4,0.4,85,0.00,,,0.00,WUHU216HW,2013-05-06 08:35:00,
2013-05-06 04:45:00,43.6,39.3,30.26,South,180,0.0,0.0,85,0.00,,,0.00,WUHU216HW,2013-05-06 08:45:00,
2013-05-06 04:55:00,44.1,39.9,30.26,East,90,0.0,1.1,85,0.00,,,0.00,WUHU216HW,2013-05-06 08:55:00,
2013-05-06 05:05:00,44.3,40.1,30.26,East,90,0.0,0.9,85,0.00,,,0.00,WUHU216HW,2013-05-06 09:05:00,
2013-05-06 05:15:00,44.6,40.4,30.26,SE,135,0.0,1.1,85,0.00,,,0.00,WUHU216HW,2013-05-06 09:15:00,
2013-05-06 05:25:00,45.0,40.8,30.26,SSE,158,0.2,1.8,85,0.00,,,0.00,WUHU216HW,2013-05-06 09:25:00,
2013-05-06 05:35:00,45.0,40.8,30.26,ENE,68,0.0,1.1,85,0.00,,,0.00,WUHU216HW,2013-05-06 09:35:00,
2013-05-06 05:45:00,45.4,40.9,30.26,ENE,68,0.9,1.6,84,0.00,,,0.00,WUHU216HW,2013-05-06 09:45:00,
2013-05-06 05:55:00,45.7,41.2,30.26,ENE,68,0.0,0.4,84,0.00,,,0.00,WUHU216HW,2013-05-06 09:55:00,
2013-05-06 06:05:00,45.9,41.0,30.27,ENE,68,0.0,0.0,83,0.00,,,0.00,WUHU216HW,2013-05-06 10:05:00,
2013-05-06 06:15:00,46.1,41.2,30.27,SSE,158,0.0,0.4,83,0.00,,,0.00,WUHU216HW,2013-05-06 10:15:00,
2013-05-06 06:25:00,46.3,41.4,30.27,NE,45,0.0,0.4,83,0.00,,,0.00,WUHU216HW,2013-05-06 10:25:00,
2013-05-06 06:35:00,46.6,41.8,30.27,SE,135,0.0,0.7,83,0.00,,,0.00,WUHU216HW,2013-05-06 10:35:00,
2013-05-06 06:45:00,47.0,42.1,30.27,SSE,158,0.0,0.9,83,0.00,,,0.00,WUHU216HW,2013-05-06 10:45:00,
2013-05-06 06:55:00,47.2,41.9,30.28,SSE,158,0.4,1.1,82,0.00,,,0.00,WUHU216HW,2013-05-06 10:55:00,
2013-05-06 07:05:00,47.3,42.1,30.28,SSE,158,0.7,1.6,82,0.00,,,0.00,WUHU216HW,2013-05-06 11:05:00,
2013-05-06 07:15:00,47.7,42.5,30.29,South,180,1.1,1.1,82,0.00,,,0.00,WUHU216HW,2013-05-06 11:15:00,
2013-05-06 07:25:00,47.9,42.3,30.29,NNE,23,1.6,1.6,81,0.00,,,0.00,WUHU216HW,2013-05-06 11:25:00,
2013-05-06 07:35:00,48.1,42.5,30.29,SSW,203,1.1,2.2,81,0.00,,,0.00,WUHU216HW,2013-05-06 11:35:00,
2013-05-06 07:45:00,48.6,43.3,30.29,ENE,68,0.9,2.2,82,0.00,,,0.00,WUHU216HW,2013-05-06 11:45:00,
2013-05-06 07:55:00,49.0,43.7,30.29,North,0,0.0,2.0,82,0.00,,,0.00,WUHU216HW,2013-05-06 11:55:00,
2013-05-06 08:05:00,49.3,44.0,30.30,South,180,1.1,1.1,82,0.00,,,0.00,WUHU216HW,2013-05-06 12:05:00,
2013-05-06 08:15:00,50.2,44.9,30.29,East,90,0.0,2.5,82,0.00,,,0.00,WUHU216HW,2013-05-06 12:15:00,
2013-05-06 08:25:00,51.5,45.8,30.30,North,0,0.4,3.1,81,0.00,,,0.00,WUHU216HW,2013-05-06 12:25:00,
2013-05-06 08:35:00,51.7,45.7,30.30,SSE,158,0.4,2.0,80,0.00,,,0.00,WUHU216HW,2013-05-06 12:35:00,
2013-05-06 08:45:00,52.4,46.1,30.30,SSW,203,0.0,2.2,79,0.00,,,0.00,WUHU216HW,2013-05-06 12:45:00,
2013-05-06 08:55:00,52.9,46.3,30.30,South,180,2.5,2.9,78,0.00,,,0.00,WUHU216HW,2013-05-06 12:55:00,
2013-05-06 09:05:00,53.3,46.6,30.30,East,90,2.2,2.5,78,0.00,,,0.00,WUHU216HW,2013-05-06 13:05:00,
2013-05-06 09:15:00,54.2,47.5,30.30,SSE,158,2.5,2.5,78,0.00,,,0.00,WUHU216HW,2013-05-06 13:15:00,
2013-05-06 09:25:00,53.8,46.5,30.30,East,90,1.8,2.9,76,0.00,,,0.00,WUHU216HW,2013-05-06 13:25:00,
2013-05-06 09:35:00,54.5,47.4,30.30,ESE,113,0.2,2.5,77,0.00,,,0.00,WUHU216HW,2013-05-06 13:35:00,
2013-05-06 09:45:00,54.7,47.3,30.30,NNE,23,0.4,2.2,76,0.00,,,0.00,WUHU216HW,2013-05-06 13:45:00,
2013-05-06 09:50:00,55.1,48.0,30.30,NNW,338,0.2,1.8,77,0.00,,,0.00,WUHU216HW,2013-05-06 13:50:00,
2013-05-06 09:55:00,55.3,47.8,30.30,NNW,338,0.0,3.6,76,0.00,,,0.00,WUHU216HW,2013-05-06 13:55:00,
2013-05-06 10:00:00,55.8,48.3,30.30,NNE,23,1.1,3.6,76,0.00,,,0.00,WUHU216HW,2013-05-06 14:00:00,
2013-05-06 10:10:00,57.4,49.1,30.30,SE,135,2.7,2.7,74,0.00,,,0.00,WUHU216HW,2013-05-06 14:10:00,
2013-05-06 10:20:00,57.4,48.8,30.30,SSE,158,0.9,1.8,73,0.00,,,0.00,WUHU216HW,2013-05-06 14:20:00,
2013-05-06 10:30:00,57.2,48.6,30.30,North,0,2.5,4.3,73,0.00,,,0.00,WUHU216HW,2013-05-06 14:30:00,
2013-05-06 10:40:00,57.4,48.8,30.30,SE,135,3.6,3.6,73,0.00,,,0.00,WUHU216HW,2013-05-06 14:40:00,
2013-05-06 10:50:00,57.8,48.8,30.30,ESE,113,0.2,1.8,72,0.00,,,0.00,WUHU216HW,2013-05-06 14:50:00,
2013-05-06 11:00:00,58.7,49.3,30.30,NE,45,2.5,3.8,71,0.00,,,0.00,WUHU216HW,2013-05-06 15:00:00,
2013-05-06 11:10:00,60.1,50.4,30.30,South,180,1.1,3.6,70,0.00,,,0.00,WUHU216HW,2013-05-06 15:10:00,
2013-05-06 11:20:00,61.0,50.9,30.30,SW,225,2.7,4.0,69,0.00,,,0.00,WUHU216HW,2013-05-06 15:20:00,
2013-05-06 11:31:00,61.6,51.4,30.30,SSE,158,2.5,2.9,69,0.00,,,0.00,WUHU216HW,2013-05-06 15:31:00,
2013-05-06 11:37:00,62.3,52.0,30.30,South,180,0.9,0.9,69,0.00,,,0.00,WUHU216HW,2013-05-06 15:37:00,
2013-05-06 11:45:00,63.2,51.6,30.30,WSW,248,0.4,2.7,66,0.00,,,0.00,WUHU216HW,2013-05-06 15:45:00,
2013-05-06 11:51:00,62.3,51.2,30.30,SE,135,0.9,1.8,67,0.00,,,0.00,WUHU216HW,2013-05-06 15:51:00,
2013-05-06 11:57:00,62.6,51.5,30.30,SSE,158,1.6,5.4,67,0.00,,,0.00,WUHU216HW,2013-05-06 15:57:00,
2013-05-06 12:05:00,63.4,52.2,30.30,East,90,1.6,3.6,67,0.00,,,0.00,WUHU216HW,2013-05-06 16:05:00,
2013-05-06 12:11:00,63.4,51.8,30.29,East,90,1.1,1.6,66,0.00,,,0.00,WUHU216HW,2013-05-06 16:11:00,
2013-05-06 12:17:00,63.4,51.8,30.28,ESE,113,0.2,2.7,66,0.00,,,0.00,WUHU216HW,2013-05-06 16:17:00,
2013-05-06 12:25:00,63.9,52.3,30.28,East,90,1.3,1.8,66,0.00,,,0.00,WUHU216HW,2013-05-06 16:25:00,
2013-05-06 12:31:00,65.5,53.4,30.27,NE,45,2.5,2.5,65,0.00,,,0.00,WUHU216HW,2013-05-06 16:31:00,
2013-05-06 12:37:00,66.6,54.0,30.27,NE,45,2.0,2.5,64,0.00,,,0.00,WUHU216HW,2013-05-06 16:37:00,
2013-05-06 12:45:00,67.0,53.6,30.27,ENE,68,0.9,3.1,62,0.00,,,0.00,WUHU216HW,2013-05-06 16:45:00,
2013-05-06 12:51:00,68.4,55.3,30.27,SSW,203,0.9,3.1,63,0.00,,,0.00,WUHU216HW,2013-05-06 16:51:00,
2013-05-06 12:57:00,69.7,55.3,30.26,SSE,158,1.8,2.5,60,0.00,,,0.00,WUHU216HW,2013-05-06 16:57:00,
2013-05-06 13:05:00,70.2,55.8,30.26,South,180,1.1,3.1,60,0.00,,,0.00,WUHU216HW,2013-05-06 17:05:00,
2013-05-06 13:11:00,70.2,55.3,30.26,South,180,1.8,2.2,59,0.00,,,0.00,WUHU216HW,2013-05-06 17:11:00,
2013-05-06 13:17:00,70.7,55.7,30.26,ESE,113,3.6,3.6,59,0.00,,,0.00,WUHU216HW,2013-05-06 17:17:00,
2013-05-06 13:25:00,70.6,55.6,30.25,SE,135,2.2,3.6,59,0.00,,,0.00,WUHU216HW,2013-05-06 17:25:00,
2013-05-06 13:31:00,71.1,56.1,30.25,SE,135,1.1,2.5,59,0.00,,,0.00,WUHU216HW,2013-05-06 17:31:00,
2013-05-06 13:37:00,71.1,56.1,30.25,SE,135,1.1,2.5,59,0.00,,,0.00,WUHU216HW,2013-05-06 17:37:00,
2013-05-06 13:45:00,70.9,55.5,30.25,SSE,158,2.0,3.6,58,0.00,,,0.00,WUHU216HW,2013-05-06 17:45:00,
2013-05-06 13:52:00,70.4,53.9,30.25,South,180,2.0,2.5,56,0.00,,,0.00,WUHU216HW,2013-05-06 17:52:00,
2013-05-06 13:57:00,69.8,53.5,30.24,SE,135,0.9,3.4,56,0.00,,,0.00,WUHU216HW,2013-05-06 17:57:00,
2013-05-06 14:05:00,69.3,52.9,30.24,ENE,68,1.1,3.4,56,0.00,,,0.00,WUHU216HW,2013-05-06 18:05:00,
2013-05-06 14:12:00,68.8,52.9,30.24,South,180,2.0,3.1,57,0.00,,,0.00,WUHU216HW,2013-05-06 18:12:00,
2013-05-06 14:17:00,68.9,53.6,30.24,SE,135,1.1,3.4,58,0.00,,,0.00,WUHU216HW,2013-05-06 18:17:00,
2013-05-06 14:25:00,68.6,52.8,30.24,NNW,338,0.4,2.5,57,0.00,,,0.00,WUHU216HW,2013-05-06 18:25:00,
2013-05-06 14:32:00,68.2,52.8,30.23,NE,45,2.7,3.8,58,0.00,,,0.00,WUHU216HW,2013-05-06 18:32:00,
2013-05-06 14:37:00,68.2,52.4,30.23,WSW,248,1.8,3.8,57,0.00,,,0.00,WUHU216HW,2013-05-06 18:37:00,
2013-05-06 14:45:00,67.9,52.0,30.23,SE,135,1.1,3.6,57,0.00,,,0.00,WUHU216HW,2013-05-06 18:45:00,
2013-05-06 14:52:00,67.7,52.4,30.23,ESE,113,1.6,4.0,58,0.00,,,0.00,WUHU216HW,2013-05-06 18:52:00,
2013-05-06 14:57:00,67.5,52.7,30.23,ESE,113,1.8,3.6,59,0.00,,,0.00,WUHU216HW,2013-05-06 18:57:00,
2013-05-06 15:05:00,67.9,52.5,30.22,East,90,2.5,2.5,58,0.00,,,0.00,WUHU216HW,2013-05-06 19:05:00,
2013-05-06 15:12:00,67.9,52.5,30.22,East,90,2.5,2.5,58,0.00,,,0.00,WUHU216HW,2013-05-06 19:12:00,
2013-05-06 15:33:00,68.2,53.4,30.21,SSW,203,2.0,2.2,59,0.00,,,0.00,WUHU216HW,2013-05-06 19:33:00,
2013-05-06 15:43:00,68.2,53.4,30.21,SE,135,1.1,4.0,59,0.00,,,0.00,WUHU216HW,2013-05-06 19:43:00,
2013-05-06 15:53:00,68.0,53.6,30.20,SE,135,2.9,4.0,60,0.00,,,0.00,WUHU216HW,2013-05-06 19:53:00,
2013-05-06 16:03:00,68.0,53.6,30.20,South,180,4.0,4.0,60,0.00,,,0.00,WUHU216HW,2013-05-06 20:03:00,
2013-05-06 16:13:00,67.9,53.5,30.20,South,180,1.1,5.8,60,0.00,,,0.00,WUHU216HW,2013-05-06 20:13:00,
2013-05-06 16:23:00,68.2,53.8,30.20,NNE,23,2.0,2.5,60,0.00,,,0.00,WUHU216HW,2013-05-06 20:23:00,
2013-05-06 16:33:00,68.0,54.1,30.20,SSW,203,3.8,6.9,61,0.00,,,0.00,WUHU216HW,2013-05-06 20:33:00,
2013-05-06 16:43:00,68.0,54.6,30.20,SSE,158,0.9,4.5,62,0.00,,,0.00,WUHU216HW,2013-05-06 20:43:00,
2013-05-06 16:53:00,68.4,54.5,30.20,SSE,158,1.1,4.7,61,0.00,,,0.00,WUHU216HW,2013-05-06 20:53:00,
2013-05-06 17:03:00,68.0,54.6,30.20,SSE,158,1.3,5.6,62,0.00,,,0.00,WUHU216HW,2013-05-06 21:03:00,
2013-05-06 17:13:00,68.0,54.1,30.20,SE,135,0.7,5.4,61,0.00,,,0.00,WUHU216HW,2013-05-06 21:13:00,
2013-05-06 17:23:00,68.0,54.1,30.20,ESE,113,1.6,4.7,61,0.00,,,0.00,WUHU216HW,2013-05-06 21:23:00,
2013-05-06 17:33:00,68.0,54.6,30.20,SE,135,1.6,2.9,62,0.00,,,0.00,WUHU216HW,2013-05-06 21:33:00,
2013-05-06 17:43:00,67.9,54.4,30.20,East,90,1.8,3.8,62,0.00,,,0.00,WUHU216HW,2013-05-06 21:43:00,
2013-05-06 17:53:00,66.8,54.2,30.21,South,180,3.4,3.4,64,0.00,,,0.00,WUHU216HW,2013-05-06 21:53:00,
2013-05-06 18:03:00,65.5,53.4,30.21,ESE,113,1.1,3.1,65,0.00,,,0.00,WUHU216HW,2013-05-06 22:03:00,
2013-05-06 18:13:00,65.2,53.5,30.20,SSW,203,0.9,4.0,66,0.00,,,0.00,WUHU216HW,2013-05-06 22:13:00,
2013-05-06 18:23:00,65.7,54.0,30.20,South,180,2.9,2.9,66,0.00,,,0.00,WUHU216HW,2013-05-06 22:23:00,
2013-05-06 18:33:00,65.7,53.6,30.20,SSE,158,2.2,2.2,65,0.00,,,0.00,WUHU216HW,2013-05-06 22:33:00,
2013-05-06 18:43:00,65.3,53.3,30.20,SSE,158,1.1,3.8,65,0.00,,,0.00,WUHU216HW,2013-05-06 22:43:00,
2013-05-06 18:53:00,64.6,53.0,30.20,SE,135,0.9,2.7,66,0.00,,,0.00,WUHU216HW,2013-05-06 22:53:00,
2013-05-06 19:03:00,64.4,52.8,30.21,South,180,0.4,3.6,66,0.00,,,0.00,WUHU216HW,2013-05-06 23:03:00,
2013-05-06 19:13:00,64.1,52.5,30.21,South,180,1.8,2.9,66,0.00,,,0.00,WUHU216HW,2013-05-06 23:13:00,
2013-05-06 19:23:00,63.4,51.8,30.21,South,180,1.8,3.1,66,0.00,,,0.00,WUHU216HW,2013-05-06 23:23:00,
2013-05-06 19:33:00,62.3,51.2,30.21,SE,135,0.9,3.4,67,0.00,,,0.00,WUHU216HW,2013-05-06 23:33:00,
2013-05-06 19:43:00,61.6,50.9,30.22,SE,135,0.0,2.0,68,0.00,,,0.00,WUHU216HW,2013-05-06 23:43:00,
2013-05-06 19:53:00,61.0,50.5,30.22,SSE,158,0.4,1.3,68,0.00,,,0.00,WUHU216HW,2013-05-06 23:53:00,
2013-05-06 20:03:00,60.1,50.0,30.22,SSE,158,0.0,1.3,69,0.00,,,0.00,WUHU216HW,2013-05-07 00:03:00,
2013-05-06 20:13:00,59.6,49.4,30.22,South,180,0.0,1.6,69,0.00,,,0.00,WUHU216HW,2013-05-07 00:13:00,
2013-05-06 20:23:00,59.0,49.3,30.22,SSE,158,0.0,0.7,70,0.00,,,0.00,WUHU216HW,2013-05-07 00:23:00,
2013-05-06 20:33:00,58.5,49.1,30.22,South,180,0.0,0.7,71,0.00,,,0.00,WUHU216HW,2013-05-07 00:33:00,
2013-05-06 20:43:00,58.0,49.0,30.22,South,180,0.0,0.0,72,0.00,,,0.00,WUHU216HW,2013-05-07 00:43:00,
2013-05-06 20:53:00,57.4,48.8,30.22,South,180,0.0,0.2,73,0.00,,,0.00,WUHU216HW,2013-05-07 00:53:00,
2013-05-06 21:03:00,56.9,48.2,30.23,South,180,0.0,0.0,73,0.00,,,0.00,WUHU216HW,2013-05-07 01:03:00,
2013-05-06 21:13:00,56.3,47.8,30.23,South,180,0.0,0.0,73,0.00,,,0.00,WUHU216HW,2013-05-07 01:13:00,
2013-05-06 21:23:00,55.8,47.6,30.23,South,180,0.0,0.0,74,0.00,,,0.00,WUHU216HW,2013-05-07 01:23:00,
2013-05-06 21:33:00,55.3,47.4,30.23,South,180,0.0,0.0,75,0.00,,,0.00,WUHU216HW,2013-05-07 01:33:00,
2013-05-06 21:43:00,54.9,47.4,30.23,South,180,0.0,0.0,76,0.00,,,0.00,WUHU216HW,2013-05-07 01:43:00,
2013-05-06 21:53:00,54.4,46.6,30.23,South,180,0.0,0.0,75,0.00,,,0.00,WUHU216HW,2013-05-07 01:53:00,
2013-05-06 22:03:00,54.2,46.5,30.23,South,180,0.0,0.0,75,0.00,,,0.00,WUHU216HW,2013-05-07 02:03:00,
2013-05-06 22:13:00,53.8,46.5,30.23,South,180,0.0,0.0,76,0.00,,,0.00,WUHU216HW,2013-05-07 02:13:00,
2013-05-06 22:23:00,53.6,47.0,30.22,SE,135,0.0,0.4,78,0.00,,,0.00,WUHU216HW,2013-05-07 02:23:00,
2013-05-06 22:33:00,53.1,46.4,30.23,SE,135,0.0,0.0,78,0.00,,,0.00,WUHU216HW,2013-05-07 02:33:00,
2013-05-06 22:43:00,52.9,46.3,30.23,SE,135,0.0,0.4,78,0.00,,,0.00,WUHU216HW,2013-05-07 02:43:00,
2013-05-06 22:53:00,52.7,46.4,30.23,ENE,68,0.0,0.4,79,0.00,,,0.00,WUHU216HW,2013-05-07 02:53:00,
2013-05-06 23:03:00,52.6,46.6,30.22,ENE,68,0.0,0.4,80,0.00,,,0.00,WUHU216HW,2013-05-07 03:03:00,
2013-05-06 23:13:00,52.4,46.4,30.22,ENE,68,0.0,0.2,80,0.00,,,0.00,WUHU216HW,2013-05-07 03:13:00,
2013-05-06 23:23:00,52.2,46.3,30.22,East,90,0.0,0.9,80,0.00,,,0.00,WUHU216HW,2013-05-07 03:23:00,
2013-05-06 23:33:00,52.0,46.4,30.22,East,90,0.0,0.0,81,0.00,,,0.00,WUHU216HW,2013-05-07 03:33:00,
2013-05-06 23:43:00,51.7,46.0,30.21,East,90,0.0,0.0,81,0.00,,,0.00,WUHU216HW,2013-05-07 03:43:00,
2013-05-06 23:53:00,51.5,45.8,30.22,East,90,0.0,0.0,81,0.00,,,0.00,WUHU216HW,2013-05-07 03:53:00,